Douglas, WY

6:36 AM MDT on May 27, 2017 (GMT -0600)
Converse County

Weather History for KDGW - March, 2014

Change the Weather History Date:

Friday, March 21, 2014

  Actual Average Record
Temperature  
Mean Temperature 33 °F 37 °F  
Max Temperature 38 °F 51 °F 74 °F (2009)
Min Temperature 27 °F 24 °F 2 °F (2002)
Degree Days  
Heating Degree Days 32 28  
Month to date heating degree days 627 653  
Since 1 July heating degree days 6217 6053  
Cooling Degree Days 0 0  
Month to date cooling degree days 0 0  
Year to date cooling degree days 0 0  
Moisture  
Dew Point 18 °F    
Average Humidity 55    
Maximum Humidity 69    
Minimum Humidity 40    
Precipitation  
Precipitation T in 0.04 in 0.12 in (2001)
Month to date precipitation 0.09 0.51  
Year to date precipitation 1.55 1.30  
Sea Level Pressure  
Sea Level Pressure 30.15 in    
Wind  
Wind Speed 13 mph (North)    
Max Wind Speed 21 mph    
Max Gust Speed 28 mph    
Visibility 10 miles    
Events Snow    
T = Trace of Precipitation, MM = Missing Value Source: NWS Daily Summary

Daily Weather History Graph

Daily Weather History Graph

Search for Another Location

Airport or City:

Trip Planner

Search our weather history database for the weather conditions in past years. The results will help you decide how hot, cold, wet, or windy it might be!

Date:

Astronomy

Mar. 21, 2014 Rise Set
Actual Time 7:02 AM MDT 7:15 PM MDT
Civil Twilight 6:34 AM MDT 7:43 PM MDT
Nautical Twilight 6:01 AM MDT 8:16 PM MDT
Astronomical Twilight 5:27 AM MDT 8:50 PM MDT
Moon No Moon Rise 9:50 AM MDT (3/21)
Length of Visible Light 13h 08m
Length of Day
12h 12m
Waning Gibbous, 75% of the Moon is Illuminated
Mar 21
Waning Gibbous
Mar 23
Last Quarter
Mar 30
New
Apr 7
First Quarter
Apr 15
Full

Hourly Weather History & Observations

Time (MDT) Temp. Windchill Dew Point Humidity Pressure Visibility Wind Dir Wind Speed Gust Speed Precip Events Conditions
12:53 AM 30.9 °F 19.4 °F 16.0 °F 54% 30.00 in 10.0 mi NNW 17.3 mph - N/A   Overcast
1:53 AM 30.0 °F 20.5 °F 19.0 °F 64% 30.01 in 10.0 mi NNW 11.5 mph - N/A   Overcast
2:53 AM 28.9 °F 19.2 °F 19.9 °F 69% 30.01 in 10.0 mi NW 11.5 mph - N/A   Overcast
3:53 AM 28.9 °F 19.2 °F 19.0 °F 67% 30.00 in 10.0 mi NW 11.5 mph - N/A   Overcast
4:53 AM 28.9 °F 18.6 °F 16.0 °F 58% 30.01 in 10.0 mi NNW 12.7 mph - N/A   Overcast
5:53 AM 28.0 °F 18.1 °F 17.1 °F 63% 30.04 in 10.0 mi NNW 11.5 mph - N/A   Overcast
6:53 AM 28.0 °F 17.0 °F 18.0 °F 66% 30.07 in 10.0 mi NNW 13.8 mph - N/A   Overcast
7:53 AM 28.0 °F 16.5 °F 17.1 °F 63% 30.15 in 10.0 mi NNW 15.0 mph 20.7 mph N/A   Overcast
8:20 AM 30.0 °F 20.5 °F 17.1 °F 59% 30.10 in 10.0 mi NNW 11.5 mph - N/A   Overcast
8:53 AM 30.0 °F 19.1 °F 18.0 °F 61% 30.17 in 10.0 mi North 15.0 mph - N/A   Mostly Cloudy
9:28 AM 32.0 °F 20.5 °F 18.0 °F 56% 30.12 in 10.0 mi NNW 18.4 mph - N/A   Mostly Cloudy
9:36 AM 32.0 °F 21.2 °F 18.0 °F 56% 30.12 in 10.0 mi North 16.1 mph - N/A   Mostly Cloudy
9:53 AM 33.1 °F 22.2 °F 18.0 °F 54% 30.19 in 10.0 mi North 17.3 mph - N/A   Partly Cloudy
10:53 AM 34.0 °F 23.8 °F 18.0 °F 52% 30.19 in 10.0 mi NNW 16.1 mph - N/A   Scattered Clouds
11:53 AM 35.1 °F 25.5 °F 17.1 °F 48% 30.20 in 10.0 mi NNW 15.0 mph - N/A   Mostly Cloudy
12:53 PM 36.0 °F 26.3 °F 16.0 °F 44% 30.19 in 10.0 mi NNW 16.1 mph 24.2 mph N/A   Mostly Cloudy
1:53 PM 37.0 °F 27.7 °F 16.0 °F 42% 30.17 in 10.0 mi North 16.1 mph - N/A   Partly Cloudy
2:53 PM 37.0 °F 28.9 °F 17.1 °F 44% 30.17 in 10.0 mi NNE 12.7 mph 19.6 mph N/A   Partly Cloudy
3:53 PM 35.1 °F 27.4 °F 18.0 °F 50% 30.18 in 10.0 mi NNE 10.4 mph - N/A   Overcast
4:53 PM 37.0 °F 29.8 °F 17.1 °F 44% 30.18 in 10.0 mi NNE 10.4 mph - N/A   Overcast
5:53 PM 33.1 °F 24.9 °F 16.0 °F 50% 30.20 in 10.0 mi NE 10.4 mph - N/A   Overcast
6:53 PM 30.9 °F 22.8 °F 17.1 °F 57% 30.22 in 10.0 mi NE 9.2 mph - N/A   Overcast
7:53 PM 28.9 °F 18.2 °F 19.0 °F 67% 30.25 in 10.0 mi East 13.8 mph - N/A   Overcast
8:53 PM 28.0 °F 16.5 °F 17.1 °F 63% 30.26 in 10.0 mi ENE 15.0 mph - N/A   Overcast
9:53 PM 27.0 °F 15.6 °F 18.0 °F 69% 30.26 in 10.0 mi ENE 13.8 mph - N/A   Overcast
10:53 PM 27.0 °F 16.7 °F 18.0 °F 69% 30.26 in 10.0 mi East 11.5 mph - N/A   Overcast
11:41 PM 27.0 °F 16.7 °F 19.9 °F 75% 30.17 in 10.0 mi East 11.5 mph - 0.00 in Snow Light Snow
11:53 PM 27.0 °F 16.7 °F 19.9 °F 75% 30.25 in 9.0 mi East 11.5 mph - 0.00 in Snow Light Snow